Weather History for KMMH - June, 2013

Change the Weather History Date:

Thursday, June 27, 2013

  Actual Average (KBIH) Record (KBIH)
Temperature  
Mean Temperature 66 °F 75 °F  
Max Temperature 91 °F 96 °F 105 °F (2013)
Min Temperature 42 °F 54 °F 41 °F (1996)
Degree Days  
Heating Degree Days 0 0  
Month to date heating degree days 17  
Since 1 June heating degree days 17  
Since 1 July heating degree days 4175  
Cooling Degree Days 2 10  
Month to date cooling degree days 182  
Year to date cooling degree days 250  
Since 1 June cooling degree days 182  
Growing Degree Days 16 (Base 50)    
Moisture  
Dew Point 37 °F    
Average Humidity 37    
Maximum Humidity 81    
Minimum Humidity 13    
Precipitation  
Precipitation 0.00 in 0.01 in 0.14 in (1973)
Month to date precipitation 0.18  
Year to date precipitation 3.06  
Snow  
Snow 0.00 in 0.00 in - ()
Month to date snowfall 0.0  
Since 1 June snowfall 0.0  
Since 1 July snowfall 8.0  
Snow Depth -    
Sea Level Pressure  
Sea Level Pressure 30.39 in    
Wind  
Wind Speed 4 mph (WSW)    
Max Wind Speed 16 mph    
Max Gust Speed 26 mph    
Visibility 10 miles    
Events      
T = Trace of Precipitation, MM = Missing Value Source: NWS Daily Summary

Daily Weather History Graph

Daily Weather History Graph

Search for Another Location

Airport or City:

Trip Planner

Search our weather history database for the weather conditions in past years. The results will help you decide how hot, cold, wet, or windy it might be!

Date:

Astronomy

Jun. 27, 2013 Rise Set
Actual Time 5:36 AM PDT 8:20 PM PDT
Civil Twilight 5:04 AM PDT 8:52 PM PDT
Nautical Twilight 4:25 AM PDT 9:31 PM PDT
Astronomical Twilight 3:41 AM PDT 10:15 PM PDT
Moon 11:27 PM PDT (6/27) 10:36 AM PDT (6/27)
Length of Visible Light 15h 47m
Length of Day
14h 44m
Waning Gibbous, 75% of the Moon is Illuminated
Jun 27
Waning Gibbous
Jun 29
Last Quarter
Jul 8
New
Jul 15
First Quarter
Jul 22
Full

Hourly Weather History & Observations

Time (PDT) Temp. Windchill Dew Point Humidity Pressure Visibility Wind Dir Wind Speed Gust Speed Precip Events Conditions
12:15 AM 55.4 °F - 42.8 °F 63% 30.36 in 10.0 mi NNW 3.5 mph - N/A   Clear
12:35 AM 55.4 °F - 42.8 °F 63% 30.36 in 10.0 mi Calm Calm - N/A   Clear
12:55 AM 53.6 °F - 42.8 °F 67% 30.36 in 10.0 mi Calm Calm - N/A   Clear
1:15 AM 53.6 °F - 42.8 °F 67% 30.37 in 10.0 mi Calm Calm - N/A   Clear
1:35 AM 53.6 °F - 41.0 °F 62% 30.37 in 10.0 mi WNW 4.6 mph - N/A   Clear
1:55 AM 48.2 °F - 41.0 °F 76% 30.36 in 10.0 mi Calm Calm - N/A   Clear
2:15 AM 48.2 °F - 39.2 °F 71% 30.37 in 10.0 mi North 3.5 mph - N/A   Clear
2:35 AM 50.0 °F - 39.2 °F 66% 30.37 in 10.0 mi Calm Calm - N/A   Clear
2:55 AM 51.8 °F - 41.0 °F 67% 30.37 in 10.0 mi Calm Calm - N/A   Clear
3:15 AM 46.4 °F - 37.4 °F 71% 30.37 in 10.0 mi Calm Calm - N/A   Clear
3:35 AM 46.4 °F 45.2 °F 37.4 °F 71% 30.37 in 10.0 mi NW 3.5 mph - N/A   Clear
3:55 AM 42.8 °F - 35.6 °F 76% 30.38 in 10.0 mi Calm Calm - N/A   Clear
4:15 AM 42.8 °F - 37.4 °F 81% 30.37 in 10.0 mi Calm Calm - N/A   Clear
4:35 AM 42.8 °F - 35.6 °F 76% 30.38 in 10.0 mi Calm Calm - N/A   Clear
4:55 AM 44.6 °F - 35.6 °F 71% 30.38 in 10.0 mi Calm Calm - N/A   Clear
5:15 AM 44.6 °F 43.1 °F 35.6 °F 71% 30.38 in 10.0 mi NNW 3.5 mph - N/A   Clear
5:35 AM 46.4 °F 45.2 °F 35.6 °F 66% 30.39 in 10.0 mi North 3.5 mph - N/A   Clear
5:55 AM 44.6 °F - 35.6 °F 71% 30.40 in 10.0 mi Calm Calm - N/A   Clear
6:15 AM 46.4 °F - 35.6 °F 66% 30.40 in 10.0 mi Calm Calm - N/A   Clear
6:35 AM 50.0 °F - 37.4 °F 62% 30.40 in 10.0 mi Calm Calm - N/A   Clear
6:55 AM 55.4 °F - 37.4 °F 51% 30.41 in 10.0 mi Calm Calm - N/A   Clear
7:15 AM 57.2 °F - 37.4 °F 48% 30.41 in 10.0 mi Calm Calm - N/A   Clear
7:35 AM 60.8 °F - 37.4 °F 42% 30.42 in 10.0 mi Calm Calm - N/A   Clear
7:55 AM 62.6 °F - 39.2 °F 42% 30.42 in 10.0 mi Calm Calm - N/A   Clear
8:15 AM 66.2 °F - 41.0 °F 40% 30.42 in 10.0 mi Calm Calm - N/A   Clear
8:35 AM 68.0 °F - 42.8 °F 40% 30.42 in 10.0 mi SE 4.6 mph - N/A   Clear
8:55 AM 71.6 °F - 42.8 °F 35% 30.42 in 10.0 mi SE 5.8 mph - N/A   Clear
9:15 AM 73.4 °F - 41.0 °F 31% 30.42 in 10.0 mi SE 5.8 mph - N/A   Clear
9:35 AM 77.0 °F - 39.2 °F 26% 30.43 in 10.0 mi ESE 5.8 mph - N/A   Clear
9:55 AM 77.0 °F - 39.2 °F 26% 30.42 in 10.0 mi ENE 6.9 mph - N/A   Clear
10:15 AM 80.6 °F - 39.2 °F 23% 30.42 in 10.0 mi ESE 5.8 mph - N/A   Clear
10:35 AM 80.6 °F - 39.2 °F 23% 30.42 in 10.0 mi ESE 6.9 mph - N/A   Clear
10:55 AM 82.4 °F - 37.4 °F 20% 30.42 in 10.0 mi East 10.4 mph - N/A   Clear
11:15 AM 82.4 °F - 35.6 °F 19% 30.42 in 10.0 mi ESE 6.9 mph - N/A   Clear
11:35 AM 84.2 °F - 35.6 °F 18% 30.42 in 10.0 mi SE 9.2 mph - N/A   Clear
11:55 AM 86.0 °F - 33.8 °F 15% 30.42 in 10.0 mi East 11.5 mph - N/A   Clear
12:15 PM 86.0 °F - 35.6 °F 17% 30.41 in 10.0 mi ESE 9.2 mph - N/A   Clear
12:35 PM 86.0 °F - 35.6 °F 17% 30.40 in 10.0 mi ESE 11.5 mph - N/A   Clear
12:55 PM 87.8 °F - 33.8 °F 15% 30.40 in 10.0 mi East 11.5 mph 18.4 mph N/A   Clear
1:15 PM 87.8 °F - 35.6 °F 16% 30.40 in 10.0 mi ESE 11.5 mph 17.3 mph N/A   Clear
1:35 PM 89.6 °F - 33.8 °F 14% 30.40 in 10.0 mi ESE 9.2 mph 17.3 mph N/A   Clear
1:55 PM 89.6 °F - 33.8 °F 14% 30.39 in 10.0 mi ESE 10.4 mph 16.1 mph N/A   Clear
2:15 PM 89.6 °F - 33.8 °F 14% 30.39 in 10.0 mi ESE 11.5 mph 19.6 mph N/A   Clear
2:35 PM 89.6 °F - 33.8 °F 14% 30.39 in 10.0 mi ESE 11.5 mph - N/A   Clear
2:55 PM 89.6 °F - 33.8 °F 14% 30.38 in 10.0 mi ESE 10.4 mph 16.1 mph N/A   Clear
3:15 PM 91.4 °F - 33.8 °F 13% 30.38 in 10.0 mi SE 11.5 mph 16.1 mph N/A   Clear
3:35 PM 89.6 °F - 33.8 °F 14% 30.37 in 10.0 mi ESE 11.5 mph - N/A   Scattered Clouds
3:55 PM 89.6 °F - 33.8 °F 14% 30.38 in 10.0 mi West 12.7 mph 19.6 mph N/A   Mostly Cloudy
4:15 PM 91.4 °F - 35.6 °F 14% 30.37 in 10.0 mi West 11.5 mph 18.4 mph N/A   Mostly Cloudy
4:35 PM 87.8 °F - 35.6 °F 16% 30.37 in 10.0 mi WNW 5.8 mph 21.9 mph N/A   Scattered Clouds
4:55 PM 89.6 °F - 35.6 °F 15% 30.37 in 10.0 mi WNW 12.7 mph 21.9 mph N/A   Scattered Clouds
5:15 PM 89.6 °F - 35.6 °F 15% 30.36 in 10.0 mi WSW 12.7 mph 19.6 mph N/A   Clear
5:35 PM 89.6 °F - 35.6 °F 15% 30.36 in 10.0 mi WNW 16.1 mph 23.0 mph N/A   Clear
5:55 PM 89.6 °F - 35.6 °F 15% 30.36 in 10.0 mi West 10.4 mph 21.9 mph N/A   Clear
6:15 PM 89.6 °F - 35.6 °F 15% 30.36 in 10.0 mi WSW 9.2 mph - N/A   Clear
6:35 PM 87.8 °F - 35.6 °F 16% 30.35 in 10.0 mi SW 12.7 mph 17.3 mph N/A   Clear
6:55 PM 86.0 °F - 35.6 °F 17% 30.36 in 10.0 mi NW 15.0 mph 26.5 mph N/A   Scattered Clouds
7:15 PM 84.2 °F - 33.8 °F 16% 30.37 in 10.0 mi NW 12.7 mph 24.2 mph N/A   Clear
7:35 PM 80.6 °F - 37.4 °F 21% 30.37 in 10.0 mi West 13.8 mph 21.9 mph N/A   Clear
7:55 PM 78.8 °F - 37.4 °F 23% 30.38 in 10.0 mi NW 9.2 mph - N/A   Clear
8:15 PM 77.0 °F - 37.4 °F 24% 30.38 in 10.0 mi Calm Calm - N/A   Clear
8:35 PM 73.4 °F - 39.2 °F 29% 30.40 in 10.0 mi WNW 9.2 mph 16.1 mph N/A   Clear
8:55 PM 73.4 °F - 37.4 °F 27% 30.40 in 10.0 mi Calm Calm - N/A   Scattered Clouds
9:15 PM 73.4 °F - 39.2 °F 29% 30.42 in 10.0 mi West 4.6 mph - N/A   Mostly Cloudy
9:35 PM 73.4 °F - 39.2 °F 29% 30.42 in 10.0 mi Calm Calm - N/A   Mostly Cloudy
9:55 PM 69.8 °F - 37.4 °F 31% 30.43 in 10.0 mi West 3.5 mph - N/A   Scattered Clouds
10:15 PM 71.6 °F - 37.4 °F 29% 30.44 in 10.0 mi WNW 8.1 mph - N/A   Clear
10:35 PM 69.8 °F - 37.4 °F 31% 30.45 in 10.0 mi West 3.5 mph - N/A   Scattered Clouds
10:55 PM 68.0 °F - 41.0 °F 37% 30.45 in 10.0 mi WNW 9.2 mph - N/A   Mostly Cloudy
11:35 PM 66.2 °F - 39.2 °F 37% 30.45 in 10.0 mi West 9.2 mph - N/A   Scattered Clouds
11:55 PM 66.2 °F - 37.4 °F 35% 30.45 in 10.0 mi West 10.4 mph - N/A   Scattered Clouds